Regional Weather Roundup
Issued by NWS

Home | Current Version | Previous Version | Graphics & Text | Print | Product List | Glossary On
Versions: 1 2 3 4 5 6 7 8 9 10 11 12 13 14 15 16 17 18 19 20 21 22 23 24 25 26 27 28 29 30 31 32 33 34 35 36 37 38 39 40 41 42 43 44 45 46 47 48 49 50
000
ASUS43 KDTX 242110
RWRMI
MICHIGAN HOURLY REGIONAL WEATHER ROUNDUP
NATIONAL WEATHER SERVICE DETROIT/PONTIAC MI
500 PM EDT SAT SEP 24 2016

NOTE: "FAIR" INDICATES FEW OR NO CLOUDS BELOW 12,000 FEET WITH NO
SIGNIFICANT WEATHER AND/OR OBSTRUCTION TO VISIBILITY.

MIZ047>049-052>055-059>063-066>070-074>076-081>083-242200-
SOUTHEAST LOWER MICHIGAN

CITY           SKY/WX    TMP DP  RH WIND       PRES   REMARKS
ADRIAN         SUNNY     72  52  49 E7        30.19F
ALMA           SUNNY     69  48  46 E7        30.23S
ANN ARBOR      SUNNY     69  49  48 E8        30.20F
BAD AXE        SUNNY     60  43  52 NE8       30.26F
CARO           SUNNY     66  46  47 E7        30.22F
DETROIT CITY   SUNNY     69  47  45 NE6       30.21F
DETROIT        MOSUNNY   69  50  50 E3        30.21F
FLINT          SUNNY     68  49  50 E6        30.22F
GROSSE ILE     SUNNY     69  49  48 NE5       30.20S
HILLSDALE      PTSUNNY   72  54  53 E6        30.19F
HOWELL         SUNNY     67  50  54 E5        30.21F

CITY           SKY/WX    TMP DP  RH WIND       PRES   REMARKS
JACKSON        SUNNY     71  54  54 NE6       30.19F
LAMBERTVILLE   SUNNY     70  54  56 E6        30.20F
LANSING        SUNNY     69  51  52 NE9       30.21F
LAPEER         FAIR      65  44  45 E3        30.23F
MASON          SUNNY     69  50  51 NE3       30.21S
MONROE         SUNNY     69  55  59 S6        30.19F
MT. CLEMENS    MOSUNNY   66  50  55 E7        30.20S
PONTIAC        MOSUNNY   68  47  46 VRB5      30.21F
PORT HOPE        N/A     61  45  55 NE12      30.26S
PORT HURON     SUNNY     63  46  55 N7        30.24S
TRI CITIES     SUNNY     66  50  56 NE9       30.24F
MIDLAND        FAIR      66  48  52 E5        30.24S
TROY           SUNNY     70  42  36 NE6       30.23F
SAGINAW HB     SUNNY     68  50  52 N10       30.22F
$$
MIZ043>046-050>051-056>058-064>065-071>073-077>080-242200-
SOUTHWEST LOWER MICHIGAN

CITY           SKY/WX    TMP DP  RH WIND       PRES   REMARKS
BATTLE CREEK   SUNNY     72  56  57 E5        30.19F
BENTON HARBOR  MOSUNNY   75  60  59 E8        30.16F
BIG RAPIDS     SUNNY     68  46  45 E7        30.23S
COLDWATER      MOSUNNY   71  56  57 E3        30.18F
FREMONT        FAIR      69  41  36 E8        30.21S
HOLLAND        SUNNY     71  57  61 SE8       30.19F
GRAND RAPIDS   MOSUNNY   70  50  49 E7        30.21S
IONIA          FAIR      68  50  52 E7        30.21S
KALAMAZOO      SUNNY     72  56  57 VRB3      30.18F
LUDINGTON      SUNNY     69  51  51 E3        30.20S
MARSHALL       SUNNY     71  55  57 N3        30.19S
MOUNT PLEASANT SUNNY     67  48  49 NE5       30.23S
MUSKEGON       MOSUNNY   71  50  47 E9        30.20S
SOUTH HAVEN    MOSUNNY   73  61  66 E7        30.17F
$$
MIZ016>042-242200-
NORTHERN LOWER MICHIGAN

CITY           SKY/WX    TMP DP  RH WIND       PRES   REMARKS
ALPENA         SUNNY     63  42  46 E7        30.28F
BEAVER ISLAND  CLOUDY    63  46  53 E7        30.26F
BELLAIRE       SUNNY     68  42  39 NE6       30.24F
CADILLAC       SUNNY     66  46  49 CALM      30.23F
CHARLEVOIX     MOSUNNY   65  44  45 NE7       30.28S
FRANKFORT      SUNNY     70  46  42 E3        30.21F
GAYLORD        CLOUDY    63  43  48 NE8       30.25F
GRAYLING       SUNNY     67  46  46 E3        30.26S
HARBOR SPRINGS CLOUDY    64  44  48 E7        30.26S
HOUGHTON LAKE  SUNNY     65  44  46 SE6       30.25F
MANISTEE       SUNNY     70  50  49 E7        30.20F
OSCODA         SUNNY     61  43  51 E7        30.26F
PELLSTON       SUNNY     63  43  48 VRB6      30.27F
ROGERS CITY    SUNNY     62  42  47 E8        30.29F
TRAVERSE CITY  MOSUNNY   71  45  39 E3        30.22S
$$
MIZ007>008-015-242200-
EASTERN UPPER MICHIGAN

CITY           SKY/WX    TMP DP  RH WIND       PRES   REMARKS
KINROSS        MOSUNNY   63  45  51 S8        30.26F
MACKINAC ISLAN SUNNY     61  44  53 E7        30.27S
NEWBERRY       SUNNY     62  46  56 CALM      30.26F
S. S. MARIE    SUNNY     66  41  40 VRB5      30.26F
MUNISING         N/A     66  48  52 SE9       30.22F
$$
MIZ004>006-011>014-085-242200-
CENTRAL UPPER MICHIGAN

CITY           SKY/WX    TMP DP  RH WIND       PRES   REMARKS
MANISTIQUE     SUNNY     63  45  51 SE7       30.26F
ESCANABA       SUNNY     64  49  57 SE10      30.23F
MENOMINEE      SUNNY     66  51  58 SE9       30.22F
SAWYER-GWINN   MOSUNNY   64  46  52 S9G16     30.23F
$$
MIZ001>003-009>011-084-242200-
WESTERN UPPER MICHIGAN

CITY           SKY/WX    TMP DP  RH WIND       PRES   REMARKS
IRON MOUNTAIN  SUNNY     69  47  45 SE8       30.20F
HOUGHTON       SUNNY     65  51  60 E10       30.18F
COPPER HARBOR    N/A     64  50  60 S10G20    30.19F
IRONWOOD       CLOUDY    69  57  65 SE12      30.13F
$$

ABBREVIATIONS USED IN REMARKS
   TC - TEMPERATURE IN CELSIUS
  WCI - WIND CHILL INDEX
   HX - HEAT INDEX
  VSB - VISIBILITY





USA.gov is the U.S. government's official web portal to all federal, state and local government web resources and services.